map of CFK home
Great Circle Mapper logo
CFK - Airport
Location
City:  Chlef, Algeria
Near (Alt.):Ech Cheliff
Name:Chlef International Airport
Old (Alt.):Aboubakr Belkaid Airport
ICAO / IATA:DAOI / CFK

Details
Type:Airport (Aerodrome, Airfield)
Use:Public/Civil, International (customs port of entry)
Latitude:3613'01"N (36.216944)
Longitude:120'24"E (1.340000)
Elevation:502 ft (153 m)
Variation:0.38E (WMM2015 magnetic declination)
0.10 annual change
Runways:2
Longest:9186 × 148 ft (2800 × 45 m)

Time
Time Zone:UTC+1
Local Time:

Weather
METAR:DAOI 290300Z 00000KT CAVOK 27/16 Q1012
TAF:DAOI 290500Z 2906/3006 00000KT CAVOK
BECMG 2910/2912 20010KT 9999 FEW030TCU SCT233 PROB30
TEMPO 2920/2924 -TSRA FEW033CB BKN233

Related Locations
Nearby:
Farthest:GIS: 12186 mi / 19612 km
Gisborne, NZ

Find:

   beyond  
but within

Other Information
Maps:
NOTAMs:
Links:
Sources:

  
flag of Algeria   

Airport Diagram

Airport diagram for CFK

Airport diagram PDF from AIP Algiers

Sectional Chart

Flight Planning
at skyvector.com

Satellite Image

Google Maps Satellite view

 

Copyright © 2004-2015 Karl L. Swartz. All rights reserved.
The Great Circle Mapper name and logo are trademarks of the Great Circle Mapper.
All other trademarks mentioned herein belong to their respective owners.
Please see credits for attibutions and further copyright information.

  Follow gcmap on Facebook Follow gcmap on Twitter Follow gcmap on Google+

hCard Microformat

Geo Microformat